Wind_Speed
5 5 4 4 4 5 5 6 6 6 6 7 7 7 6 6 7 7 8 8 8 8 8 8 8 7 7 8 9 9 9 9 10 11 13 13 13 13 13 14 14 14 15
6 5 4 4 5 6 6 6 7 7 7 7 7 7 7 7 8 8 9 9 9 9 9 9 9 8 9 10 10 10 9 9 10 11 12 13 13 13 14 14 15 15 16
7 6 4 4 6 7 7 7 7 7 7 7 7 7 8 8 9 10 10 10 10 10 10 9 9 9 10 11 11 10 9 9 10 11 11 12 12 13 14 15 16 16 17
7 7 6 6 7 7 7 8 7 7 7 7 8 8 9 9 10 10 11 10 10 10 11 11 10 11 11 11 11 11 11 10 11 12 12 12 12 13 14 15 16 17 17
8 8 7 8 8 8 9 9 9 9 9 9 8 9 10 10 11 12 12 12 12 12 12 12 12 13 13 13 13 13 13 13 13 13 13 13 13 14 15 16 17 18 18
9 9 9 10 11 10 10 10 10 10 10 10 10 11 11 12 12 12 13 14 14 13 13 13 14 14 14 14 14 15 15 15 15 15 15 15 16 16 16 17 17 18 18
11 11 11 12 12 12 12 12 12 12 12 12 13 13 13 14 14 14 14 15 15 15 15 15 15 16 16 16 16 16 16 16 16 17 18 18 18 18 18 19 20 20 19
13 13 13 14 14 14 15 14 15 15 15 15 15 16 16 16 16 15 16 17 17 17 17 17 17 17 18 18 17 17 17 17 18 18 19 20 19 20 20 21 21 21 21
15 15 15 16 16 17 17 18 18 18 18 17 18 18 18 18 18 18 18 18 19 19 19 19 20 20 20 19 19 18 19 19 20 20 21 21 22 22 21 21 22 22 22
17 17 17 18 19 19 20 21 22 20 19 20 19 20 20 20 20 20 20 20 21 22 21 20 21 21 21 21 20 20 21 21 21 22 22 23 24 24 24 24 23 23 23
20 20 20 21 21 22 22 23 23 23 22 22 21 21 21 22 22 22 22 22 23 24 23 22 22 23 23 22 22 23 23 23 23 24 23 24 25 25 25 26 26 26 26
23 23 23 23 23 23 23 24 24 24 24 24 24 23 24 24 24 24 25 25 25 25 23 24 24 24 24 24 23 24 24 24 24 24 25 26 26 26 26 26 26 27 27
24 24 24 24 25 25 25 25 26 26 26 26 26 26 26 26 25 26 27 27 26 24 24 25 25 25 25 25 25 25 25 25 26 26 27 28 28 28 27 27 27 28 28
26 26 25 25 26 27 27 26 26 27 27 27 27 28 27 27 27 28 28 27 25 24 24 25 25 26 26 26 26 27 27 27 27 27 28 29 29 29 28 28 28 29 29
27 27 27 27 27 28 27 27 27 27 27 28 28 29 28 28 28 28 28 27 26 24 25 25 26 27 28 28 28 28 28 28 28 28 29 29 29 29 30 30 30 30 29
28 28 28 28 28 28 28 28 28 28 28 28 28 29 29 29 28 28 29 28 27 26 26 27 27 28 29 29 29 29 29 29 29 30 30 31 31 31 30 30 31 30 30
29 29 29 30 29 28 28 28 28 28 28 29 29 29 30 30 30 30 28 29 29 29 28 28 28 29 29 29 30 30 31 31 31 31 31 32 32 32 31 31 32 32 32
30 30 30 30 30 29 29 29 29 30 30 29 29 29 29 29 30 29 29 30 30 29 29 29 29 29 30 31 31 31 31 31 32 32 32 32 32 32 32 32 32 32 32
30 30 31 31 31 31 31 31 31 31 30 30 29 29 29 29 30 30 30 30 29 29 30 30 30 31 31 31 31 32 32 32 32 33 33 33 33 34 34 33 32 32 32
31 31 32 32 32 32 32 33 32 31 31 31 31 30 30 31 31 30 30 30 30 31 31 31 32 32 32 33 33 34 34 34 33 34 34 34 34 34 34 33 32 32 33
31 32 32 33 33 33 33 34 34 32 32 32 32 32 31 31 31 31 31 32 32 32 33 33 34 34 34 35 35 36 36 36 35 34 34 34 33 33 33 33 33 33 33
33 33 33 33 33 34 34 34 34 33 32 32 32 33 33 33 33 33 33 33 33 34 34 34 35 35 35 36 37 37 37 36 36 35 34 34 33 33 33 33 32 33 33
33 33 34 35 35 35 34 34 35 35 34 33 33 34 34 34 34 34 35 35 35 35 35 36 36 36 37 37 37 37 36 36 35 34 34 33 32 32 32 32 32 32 32
34 34 34 35 35 35 35 35 35 36 35 34 34 34 35 35 35 35 35 36 36 36 36 35 35 36 36 36 36 37 36 36 35 34 33 32 32 31 31 31 31 31 31
33 33 33 33 34 35 34 33 34 34 34 34 34 34 34 35 35 35 35 36 36 36 36 35 35 34 34 35 34 35 35 35 34 33 32 31 31 31 31 31 31 31 31
32 32 32 33 33 34 33 33 34 34 35 35 35 35 36 35 35 35 35 35 35 35 34 35 35 34 34 33 33 33 33 33 33 32 32 31 31 32 32 31 31 30 30
Wind_Direction
0 6 17 23 19 13 11 12 14 15 13 14 15 14 10 4 357 357 357 356 355 353 349 344 343 337 329 322 319 313 303 297 289 281 275 275 273 267 265 263 264 265 264
352 352 357 4 -0 354 355 356 357 359 357 358 1 360 0 356 350 350 350 350 348 346 343 342 339 334 333 329 321 319 313 306 297 293 287 283 280 272 270 270 269 270 269
334 334 335 340 344 342 340 337 338 340 340 341 344 347 347 344 343 342 338 338 339 343 342 338 335 331 331 327 322 319 315 310 302 297 293 287 281 275 276 276 273 272 270
323 325 322 326 327 326 327 324 320 321 324 326 329 332 332 333 334 332 333 331 330 330 331 330 328 327 326 325 324 318 312 310 307 303 298 293 286 279 278 278 277 276 275
311 312 311 313 312 310 311 313 313 314 316 316 318 321 322 325 328 327 326 325 323 321 323 323 322 322 323 322 323 317 312 307 304 302 301 299 293 286 281 279 279 278 277
308 309 307 305 304 302 301 303 306 309 312 311 307 308 309 311 314 316 316 315 315 312 314 315 315 316 317 316 315 313 310 305 302 297 296 296 297 293 286 281 278 279 279
296 299 299 299 300 298 296 297 299 299 299 300 299 301 301 303 305 308 309 311 312 308 307 308 309 309 309 309 309 308 305 304 301 298 294 292 294 293 291 286 283 281 279
289 290 292 294 293 292 291 288 290 291 291 292 293 295 296 297 298 300 305 309 308 306 305 305 306 305 304 303 304 304 302 300 300 300 296 292 292 292 291 289 286 282 280
284 284 288 290 288 288 287 285 283 287 287 286 288 290 292 291 294 296 300 305 304 302 302 303 304 304 302 301 301 301 300 298 298 299 298 293 290 290 288 286 286 283 280
280 282 285 285 284 284 284 287 284 284 284 284 286 287 288 290 293 295 297 299 301 300 298 300 303 304 303 299 297 297 297 297 297 298 298 295 292 290 288 285 284 282 282
279 281 283 283 282 283 283 286 289 286 285 286 286 287 286 287 289 291 294 297 298 299 298 297 298 300 300 298 295 294 296 296 296 295 295 294 292 291 289 287 286 284 282
277 279 281 282 282 283 283 285 287 288 287 286 285 286 285 287 289 291 292 293 295 293 293 295 295 297 298 297 293 293 294 294 294 293 292 293 291 290 289 287 285 286 284
277 279 278 280 282 282 283 284 286 287 288 286 284 284 285 286 287 290 291 291 291 289 290 293 294 295 294 293 292 292 292 292 292 293 293 293 292 290 288 287 286 286 286
277 278 278 279 280 281 282 283 284 285 285 285 285 284 283 284 285 287 289 290 288 287 287 290 292 292 292 292 292 291 291 292 293 294 294 294 292 290 287 285 285 285 285
276 277 277 278 278 279 281 282 283 284 284 284 284 286 285 284 284 285 287 289 289 287 286 288 290 291 292 293 293 292 291 292 293 294 294 294 292 290 288 285 284 283 283
276 277 278 278 278 277 279 282 284 285 284 285 286 285 285 285 283 285 287 289 287 286 287 289 289 290 292 293 294 293 292 291 292 293 293 293 291 290 289 286 283 283 283
273 275 277 276 276 277 279 281 283 286 288 289 288 286 287 286 285 285 286 290 288 286 287 288 289 291 291 292 294 293 292 292 292 292 293 292 291 289 289 287 285 285 284
274 276 277 277 279 281 281 282 283 285 287 287 287 285 284 285 284 285 288 290 290 288 288 290 291 291 292 293 293 292 292 293 294 293 292 292 291 289 288 287 285 285 285
274 276 276 277 279 280 282 281 283 284 285 286 286 284 282 284 286 287 289 290 290 290 289 291 291 292 293 293 293 293 294 294 293 293 293 292 291 290 289 287 284 284 284
273 274 275 276 277 279 280 281 281 281 283 284 285 285 285 285 286 286 288 288 290 290 291 291 292 292 292 292 292 292 292 292 293 293 292 291 291 291 289 286 284 283 282
276 276 278 277 277 278 280 280 281 280 281 282 283 284 285 285 286 287 286 287 288 290 291 292 291 291 291 291 291 291 291 291 291 292 291 291 290 291 289 286 285 284 283
276 276 277 277 277 278 279 280 280 280 281 281 282 283 283 284 285 285 285 286 289 290 290 290 290 290 290 290 291 291 291 291 291 291 291 290 290 289 288 286 284 283 282
278 278 278 277 278 279 279 280 281 281 281 281 282 283 283 283 284 285 286 287 288 289 289 289 289 289 289 290 290 291 291 291 290 290 291 290 290 289 287 286 285 283 282
277 278 280 280 279 279 280 281 281 283 282 281 282 284 284 284 285 286 287 287 287 288 288 289 289 289 290 291 290 289 289 289 289 290 291 290 289 288 287 286 285 284 283
277 279 281 281 281 282 282 282 283 282 282 282 283 284 284 284 285 286 286 287 287 286 286 288 290 289 290 290 290 289 288 287 287 288 289 289 289 288 287 286 285 284 284
277 279 280 281 281 282 283 284 283 283 283 283 283 283 282 283 285 286 286 287 287 285 286 287 288 289 290 289 289 288 289 289 288 289 289 289 288 287 285 285 284 282 282
Height
5921 5920 5919 5918 5917 5916 5915 5914 5912 5911 5910 5909 5907 5906 5905 5904 5902 5901 5899 5898 5896 5895 5893 5892 5890 5889 5887 5886 5884 5883 5881 5881 5880 5880 5879 5879 5879 5879 5879 5879 5879 5879 5879
5921 5920 5919 5918 5917 5916 5915 5914 5912 5911 5910 5909 5907 5906 5905 5903 5902 5900 5899 5897 5896 5894 5893 5891 5889 5888 5886 5884 5883 5881 5879 5878 5878 5877 5877 5876 5877 5876 5876 5875 5875 5876 5875
5921 5920 5918 5918 5917 5916 5914 5913 5912 5911 5909 5908 5907 5906 5905 5903 5901 5900 5898 5896 5895 5893 5892 5890 5888 5887 5885 5883 5881 5879 5878 5877 5876 5874 5874 5874 5873 5873 5873 5872 5872 5872 5872
5921 5919 5918 5917 5916 5915 5914 5912 5911 5910 5909 5907 5906 5905 5904 5902 5900 5898 5897 5895 5894 5892 5890 5889 5887 5885 5883 5882 5880 5878 5876 5875 5873 5872 5871 5871 5870 5870 5869 5868 5868 5867 5867
5920 5919 5917 5916 5915 5914 5913 5911 5910 5909 5907 5906 5905 5904 5902 5901 5899 5897 5895 5894 5892 5890 5889 5887 5885 5883 5881 5879 5878 5876 5874 5873 5871 5870 5869 5868 5867 5866 5865 5865 5864 5863 5862
5918 5917 5916 5915 5913 5912 5911 5910 5909 5907 5906 5904 5903 5902 5900 5898 5897 5895 5893 5892 5890 5888 5887 5885 5883 5881 5879 5877 5876 5874 5872 5870 5869 5867 5866 5865 5864 5862 5862 5861 5859 5859 5858
5916 5915 5914 5913 5912 5911 5909 5908 5907 5905 5904 5902 5900 5899 5898 5896 5894 5892 5891 5889 5887 5886 5884 5882 5881 5879 5877 5875 5873 5871 5869 5867 5866 5864 5863 5861 5860 5859 5857 5856 5855 5854 5853
5914 5913 5911 5910 5909 5908 5907 5905 5904 5903 5901 5899 5898 5896 5894 5893 5891 5890 5888 5886 5884 5882 5881 5879 5877 5875 5873 5871 5869 5867 5866 5864 5862 5860 5859 5857 5856 5854 5853 5851 5850 5849 5848
5910 5909 5908 5907 5906 5905 5903 5902 5900 5899 5897 5895 5894 5892 5891 5889 5887 5885 5884 5882 5880 5878 5876 5875 5873 5871 5869 5867 5865 5863 5861 5859 5858 5856 5854 5852 5851 5849 5847 5846 5844 5843 5842
5906 5905 5904 5903 5902 5900 5899 5898 5896 5894 5893 5891 5889 5888 5886 5884 5883 5881 5879 5876 5875 5873 5871 5870 5868 5866 5864 5862 5860 5858 5856 5854 5853 5851 5849 5847 5845 5843 5841 5840 5838 5837 5836
5902 5901 5900 5899 5897 5896 5894 5893 5891 5889 5888 5886 5884 5883 5881 5880 5878 5875 5873 5871 5870 5868 5866 5865 5863 5861 5859 5857 5855 5853 5851 5849 5847 5845 5843 5841 5839 5837 5835 5833 5832 5830 5829
5896 5895 5894 5893 5892 5890 5889 5887 5886 5884 5882 5881 5879 5877 5875 5874 5872 5870 5867 5865 5864 5862 5860 5859 5857 5855 5853 5851 5848 5847 5845 5843 5841 5839 5837 5834 5832 5830 5828 5826 5825 5824 5822
5890 5889 5888 5887 5885 5884 5883 5881 5880 5878 5876 5874 5873 5871 5870 5868 5866 5864 5861 5859 5857 5855 5854 5853 5851 5849 5847 5845 5842 5840 5838 5836 5834 5832 5830 5827 5825 5823 5821 5819 5818 5816 5815
5883 5883 5882 5880 5879 5877 5876 5875 5873 5871 5869 5868 5866 5864 5863 5861 5859 5857 5854 5851 5850 5848 5847 5846 5845 5842 5840 5838 5836 5833 5831 5829 5827 5824 5822 5820 5818 5815 5813 5811 5810 5808 5807
5876 5875 5874 5873 5872 5870 5869 5867 5866 5864 5862 5860 5859 5857 5856 5854 5852 5850 5847 5845 5843 5842 5841 5839 5837 5836 5833 5831 5829 5826 5824 5821 5819 5817 5814 5812 5810 5807 5805 5803 5802 5800 5799
5869 5868 5867 5865 5864 5863 5861 5860 5858 5857 5855 5853 5851 5849 5848 5846 5844 5842 5840 5839 5837 5835 5833 5831 5830 5828 5826 5823 5821 5818 5816 5814 5811 5809 5806 5804 5802 5799 5797 5795 5793 5792 5790
5861 5860 5859 5857 5856 5855 5854 5852 5851 5849 5847 5845 5843 5842 5841 5839 5837 5834 5833 5831 5829 5828 5826 5824 5822 5820 5818 5815 5813 5810 5807 5805 5803 5800 5798 5795 5793 5790 5788 5786 5784 5782 5781
5852 5851 5850 5849 5848 5847 5845 5844 5842 5841 5840 5838 5836 5834 5832 5831 5829 5827 5825 5823 5822 5819 5818 5816 5814 5812 5809 5807 5804 5801 5799 5796 5794 5791 5789 5786 5783 5781 5779 5777 5775 5773 5771
5844 5843 5842 5841 5840 5839 5837 5836 5834 5832 5831 5829 5827 5825 5824 5822 5821 5819 5817 5815 5813 5811 5809 5807 5805 5803 5800 5798 5795 5792 5790 5788 5785 5782 5779 5776 5774 5772 5769 5767 5765 5763 5762
5835 5834 5833 5832 5830 5829 5828 5827 5825 5824 5822 5820 5819 5817 5815 5814 5812 5810 5808 5806 5805 5803 5800 5798 5796 5794 5791 5789 5786 5783 5781 5778 5775 5772 5769 5767 5764 5762 5759 5757 5755 5753 5752
5826 5825 5824 5822 5821 5820 5819 5817 5815 5814 5813 5812 5810 5808 5807 5805 5803 5801 5799 5797 5795 5793 5791 5789 5787 5784 5782 5779 5776 5773 5770 5768 5765 5762 5759 5757 5754 5752 5749 5747 5745 5743 5741
5816 5815 5814 5813 5812 5811 5809 5808 5806 5804 5803 5802 5801 5799 5797 5796 5794 5792 5790 5787 5785 5783 5781 5779 5777 5774 5771 5769 5766 5763 5760 5757 5755 5752 5749 5747 5744 5741 5739 5737 5735 5733 5731
5807 5805 5804 5803 5802 5801 5799 5798 5797 5795 5793 5792 5791 5789 5788 5786 5784 5782 5780 5778 5775 5773 5771 5769 5766 5764 5761 5758 5755 5753 5750 5747 5744 5741 5739 5736 5734 5731 5729 5727 5725 5723 5721
5797 5796 5795 5793 5792 5791 5790 5789 5787 5785 5783 5782 5780 5779 5777 5775 5773 5771 5769 5767 5765 5762 5760 5758 5755 5753 5750 5747 5744 5742 5739 5736 5734 5731 5729 5726 5724 5721 5719 5717 5715 5713 5711
5788 5787 5785 5784 5782 5781 5780 5778 5777 5775 5773 5771 5770 5768 5767 5765 5763 5761 5759 5756 5754 5751 5749 5747 5744 5742 5739 5736 5733 5731 5729 5726 5724 5721 5719 5716 5714 5712 5709 5707 5705 5703 5702
5778 5777 5776 5775 5773 5772 5770 5769 5767 5765 5763 5762 5760 5758 5756 5754 5752 5750 5748 5745 5743 5740 5738 5736 5734 5731 5729 5726 5723 5721 5719 5716 5713 5711 5709 5707 5704 5702 5700 5697 5695 5693 5691